Location: Chiroubles
(46.1812°N, 4.6660°E)
Time: 18:18:11
(UTC+00:00)

Explorer 11/Cluster Stage 4 - All Passes

Search period start: 04 December 2020 00:00
Search period end: 14 December 2020 00:00
Orbit: 467 x 1258 km, 28.8° (Epoch: 03 December)

Date Brightness Start Highest point End Pass type
(mag) Time Alt. Az. Time Alt. Az. Time Alt. Az.
04 Dec - 18:31:03 10° SSW 18:35:23 16° SSE 18:39:32 10° SE visible
04 Dec - 20:18:12 10° SW 20:23:20 19° S 20:28:00 10° SE visible
04 Dec - 22:07:34 10° SW 22:11:02 14° SSW 22:14:13 10° SSE night (unlit)
05 Dec - 18:19:22 10° SSW 18:24:12 17° SSE 18:28:49 10° SE visible
05 Dec - 20:06:48 10° SW 20:12:10 20° S 20:17:05 10° SE visible
05 Dec - 21:56:23 10° SW 21:59:53 14° SSW 22:03:08 10° S night (unlit)
06 Dec - 18:07:48 10° SSW 18:12:59 18° SSE 18:18:00 10° SE visible
06 Dec - 19:55:27 10° SW 20:00:59 20° S 20:06:07 10° SE visible
06 Dec - 21:45:16 10° SW 21:48:43 14° SSW 21:51:57 10° S night (unlit)
07 Dec - 16:12:09 10° SSE 16:13:56 11° SSE 16:15:43 10° SE daylight
07 Dec - 17:56:20 10° SSW 18:01:46 19° S 18:07:05 10° SE visible
07 Dec - 19:44:09 10° SW 19:49:47 21° S 19:55:04 10° SE visible
07 Dec - 21:34:14 10° SW 21:37:32 13° SSW 21:40:40 10° S visible
08 Dec - 15:59:54 10° S 16:02:41 12° SSE 16:05:30 10° SE daylight
08 Dec - 17:44:56 10° SW 17:50:32 20° S 17:56:05 10° SE visible
08 Dec - 19:32:55 10° SW 19:38:34 21° S 19:43:58 10° SE visible
08 Dec - 21:23:17 10° SW 21:26:19 13° SSW 21:29:14 10° S visible
09 Dec - 15:48:05 10° S 15:51:26 13° SSE 15:54:53 10° SE daylight
09 Dec - 17:33:37 10° SW 17:39:19 21° S 17:45:01 10° SE visible
09 Dec - 19:21:43 10° SW 19:27:22 20° S 19:32:47 10° SE visible
09 Dec - 21:12:31 10° SW 21:15:06 12° SSW 21:17:37 10° S visible
10 Dec - 15:36:29 10° S 15:40:12 14° SSE 15:44:04 10° SE daylight
10 Dec - 17:22:22 10° SW 17:28:04 21° S 17:33:53 10° SE visible
10 Dec - 19:10:36 10° SW 19:16:07 20° S 19:21:33 10° SSE visible
10 Dec - 21:02:03 10° SW 21:03:52 11° SSW 21:05:40 10° SSW visible
11 Dec - 15:25:02 10° SSW 15:28:59 15° SSE 15:33:06 10° SE daylight
11 Dec - 17:11:11 10° SW 17:16:51 22° S 17:22:42 10° SE visible
11 Dec - 18:59:31 10° SW 19:04:54 19° SSW 19:10:13 10° SSE visible
12 Dec - 15:13:42 10° SSW 15:17:46 16° SSE 15:22:04 10° SE daylight
12 Dec - 17:00:04 10° SW 17:05:38 21° S 17:11:27 10° SE visible
12 Dec - 18:48:32 10° SW 18:53:39 18° SSW 18:58:48 10° SSE visible
13 Dec - 15:02:29 10° SSW 15:06:34 16° SSE 15:10:56 10° SE daylight
13 Dec - 16:49:01 10° SW 16:54:25 21° S 17:00:09 10° SE visible
13 Dec - 18:37:37 10° SW 18:42:25 17° SSW 18:47:19 10° SSE visible
